Location: Drignac
(45.1667°N, 2.0333°E)
Time: 23:42:23
(UTC+00:00)

Cosmos 2369 Rocket - Pass Details

Date: 29 March 2020
Orbit: 829 x 852 km, 71.0° (Epoch: 30 May)

Event Time Altitude Azimuth Distance (km) Brightness Sun altitude
Rises 21:31:17 0° 326° (NW) 3,424 6.5 -31.3°
Reaches altitude 10° 21:33:57 10° 317° (NW) 2,482 5.5 -31.6°
Maximum altitude 21:38:57 33° 256° (WSW) 1,395 3.4 -32.2°
Enters shadow 21:39:02 33° 254° (WSW) 1,395 3.4 -32.2°
